Weather History for Corpus Christi, TX

Change the Weather History Date:

Thursday, May 8, 2014

  Actual Average Record
Temperature  
Mean Temperature 78 °F 77 °F  
Max Temperature 80 °F 85 °F 98 °F (1967)
Min Temperature 75 °F 69 °F 53 °F (1992)
Degree Days  
Heating Degree Days 0 0  
Month to date heating degree days 0 0  
Since 1 July heating degree days 1145 898  
Cooling Degree Days 13 12  
Month to date cooling degree days 72 91  
Year to date cooling degree days 518 519  
Growing Degree Days 28 (Base 50)    
Moisture  
Dew Point 73 °F    
Average Humidity 87    
Maximum Humidity 94    
Minimum Humidity 79    
Precipitation  
Precipitation 0.02 in 0.09 in 2.63 in (1968)
Month to date precipitation 0.10 0.70  
Year to date precipitation 3.16 7.90  
Snow  
Snow 0.00 in - - ()
Month to date snowfall 0.0  
Since 1 July snowfall T  
Snow Depth 0.00 in    
Sea Level Pressure  
Sea Level Pressure 29.83 in    
Wind  
Wind Speed 17 mph (SSE)    
Max Wind Speed 28 mph    
Max Gust Speed 33 mph    
Visibility 7 miles    
Events Rain    
T = Trace of Precipitation, MM = Missing Value Source: NWS Daily Summary

Daily Weather History Graph

Daily Weather History Graph

Search for Another Location

Airport:

Trip Planner

Search our weather history database for the weather conditions in past years. The results will help you decide how hot, cold, wet, or windy it might be!

Date:

Astronomy

May. 08, 2014 Rise Set
Actual Time 6:45 AM CDT 8:08 PM CDT
Civil Twilight 6:20 AM CDT 8:33 PM CDT
Nautical Twilight 5:50 AM CDT 9:03 PM CDT
Astronomical Twilight 5:19 AM CDT 9:34 PM CDT
Moon 2:40 PM CDT (5/8) 2:44 AM CDT (5/8)
Length of Visible Light 14h 13m
Length of Day
13h 23m
Waxing Gibbous, 65% of the Moon is Illuminated
May 8
Waxing Gibbous
May 14
Full
May 21
Last Quarter
May 28
New
Jun 5
First Quarter

Hourly Weather History & Observations

Time (CDT) Temp. Heat Index Dew Point Humidity Pressure Visibility Wind Dir Wind Speed Gust Speed Precip Events Conditions
12:33 AM 75.9 °F - 72.0 °F 87% 29.85 in 9.0 mi SSE 10.4 mph - N/A   Overcast
12:51 AM 75.9 °F - 72.0 °F 87% 29.85 in 9.0 mi SSE 9.2 mph - N/A   Overcast
1:27 AM 75.9 °F - 72.0 °F 87% 29.84 in 9.0 mi SSE 11.5 mph - N/A   Overcast
1:51 AM 75.9 °F - 72.0 °F 87% 29.83 in 9.0 mi SSE 11.5 mph - N/A   Overcast
2:51 AM 75.9 °F - 72.0 °F 87% 29.82 in 9.0 mi SSE 11.5 mph - N/A   Overcast
3:51 AM 75.2 °F - 73.4 °F 94% 29.81 in 7.0 mi SE 13.8 mph - N/A   Overcast
4:18 AM 75.9 °F - 73.0 °F 91% 29.81 in 6.0 mi SSE 13.8 mph - N/A   Overcast
4:51 AM 75.9 °F - 73.0 °F 91% 29.82 in 6.0 mi SSE 12.7 mph - N/A   Overcast
5:38 AM 75.0 °F - 73.0 °F 94% 29.81 in 6.0 mi SSE 15.0 mph - 0.00 in   Overcast
5:51 AM 75.9 °F - 73.0 °F 91% 29.81 in 5.0 mi SSE 13.8 mph - 0.00 in   Overcast
6:51 AM 75.2 °F - 73.4 °F 94% 29.81 in 4.0 mi SSE 18.4 mph - N/A   Overcast
7:51 AM 75.9 °F - 73.0 °F 91% 29.82 in 4.0 mi SSE 15.0 mph - 0.00 in   Overcast
7:58 AM 75.9 °F - 73.0 °F 91% 29.83 in 4.0 mi SSE 18.4 mph - N/A   Overcast
8:51 AM 77.0 °F - 73.0 °F 88% 29.84 in 5.0 mi SSE 18.4 mph - N/A   Overcast
9:51 AM 77.0 °F - 72.0 °F 84% 29.84 in 6.0 mi SSE 25.3 mph - 0.00 in Rain Light Rain
10:03 AM 77.0 °F - 73.0 °F 88% 29.85 in 5.0 mi SSE 20.7 mph - 0.00 in Rain Light Rain
10:05 AM 77.0 °F - 73.0 °F 88% 29.85 in 4.0 mi SSE 23.0 mph - 0.00 in Rain Light Rain
10:51 AM 75.9 °F - 73.0 °F 91% 29.86 in 3.0 mi SSE 16.1 mph - 0.02 in Rain Light Rain
11:51 AM 75.9 °F - 73.0 °F 91% 29.87 in 4.0 mi SSE 17.3 mph - 0.00 in Rain Light Rain
12:51 PM 77.0 °F - 73.9 °F 90% 29.86 in 6.0 mi SE 21.9 mph - 0.00 in   Overcast
1:18 PM 78.1 °F - 73.9 °F 87% 29.85 in 6.0 mi SE 25.3 mph 29.9 mph 0.00 in Rain Light Rain
1:51 PM 77.0 °F - 73.0 °F 88% 29.85 in 6.0 mi SSE 20.7 mph - 0.00 in   Overcast
2:51 PM 77.0 °F - 73.0 °F 88% 29.84 in 7.0 mi SSE 17.3 mph - 0.00 in   Overcast
3:51 PM 78.1 °F - 73.0 °F 84% 29.82 in 8.0 mi SSE 24.2 mph 27.6 mph N/A   Overcast
4:51 PM 78.1 °F - 73.0 °F 84% 29.81 in 9.0 mi SSE 18.4 mph 27.6 mph N/A   Overcast
5:20 PM 79.0 °F - 73.0 °F 82% 29.80 in 10.0 mi South 17.3 mph 25.3 mph N/A   Overcast
5:51 PM 80.1 °F 84.5 °F 73.9 °F 81% 29.80 in 9.0 mi South 18.4 mph - N/A   Overcast
6:44 PM 78.1 °F - 73.0 °F 84% 29.79 in 8.0 mi SSE 21.9 mph - N/A   Overcast
6:51 PM 78.1 °F - 73.0 °F 84% 29.79 in 8.0 mi SSE 20.7 mph - N/A   Overcast
7:51 PM 77.0 °F - 73.0 °F 88% 29.81 in 5.0 mi SSE 16.1 mph - N/A   Overcast
8:51 PM 75.9 °F - 73.0 °F 91% 29.81 in 7.0 mi SSE 15.0 mph - N/A   Overcast
9:51 PM 75.2 °F - 73.4 °F 94% 29.82 in 7.0 mi SSE 17.3 mph - N/A   Overcast
10:51 PM 75.9 °F - 73.0 °F 91% 29.84 in 7.0 mi SSE 19.6 mph - N/A   Overcast
11:07 PM 75.9 °F - 73.0 °F 91% 29.84 in 7.0 mi SSE 17.3 mph - N/A   Overcast
11:51 PM 75.9 °F - 73.0 °F 91% 29.84 in 8.0 mi South 15.0 mph - N/A   Overcast